Volver al catálogo

ATLAS 5 CENTAUR DEB

LostHEO
NORAD 43978·DEBRIS·🇺🇸 United States

Lanzado Sep 17, 2014 desde Cape Canaveral Space Force Station

Loading…

Próximos Pases (próximas 24 horas)

TLE

ObsoletoSource: Space-Track

Época: Jan 25, 2019, 00:14 UTC

1 43978U 14055AH  19025.01008542 -.00000181  00000-0  00000+0 0  9993
2 43978  22.2568  32.5491 4641123  78.1881  45.2433  1.83159221  2618

Sigue ATLAS 5 CENTAUR DEB en tiempo real con AllMySat

Download on the App Store